User: anonymous   Login
Location: Unspecified
(0.0000°N, 0.0000°E)
Time: 19:45:45
(UTC+00:00)
Language:

Meteosat 1 - Orbit

View from above orbital plane
View from above orbital plane
View from above satellite
View from above satellite

Ground track
Ground track

The orbit data is extracted from the following two-line orbital elements,

1 10489U 77108A   18146.82025425 -.00000349 +00000-0 +00000-0 0  9990
2 10489 011.8268 316.5999 0014031 012.4170 343.7592 01.00254022107698
Epoch (UTC): 26 May 2018 19:41:09
Eccentricity: 0.0014031
inclination: 11.8268°
perigee height: 35732 km
apogee height: 35850 km
right ascension of ascending node: 316.5999°
argument of perigee: 12.4170°
revolutions per day: 1.00254022
mean anomaly at epoch: 343.7592°
orbit number at epoch: 10769

The dashed part of the orbit path shows where the satellite is in the earth's shadow,  

DLR